EDT,Max TemperatureF,Mean TemperatureF,Min TemperatureF,Max Dew PointF,MeanDew PointF,Min DewpointF,Max Humidity, Mean Humidity, Min Humidity, Max Sea Level PressureIn, Mean Sea Level PressureIn, Min Sea Level PressureIn, Max VisibilityMiles, Mean VisibilityMiles, Min VisibilityMiles, Max Wind SpeedMPH, Mean Wind SpeedMPH, Max Gust SpeedMPH,PrecipitationIn, CloudCover, Events, WindDirDegrees
2013-4-1,60,46,32,46,36,12,100,64,27,29.95,29.73,29.67,10,5,0,29,11,39,T,4,Fog,255
2013-4-2,43,33,23,15,12,9,65,45,25,30.12,30.03,29.96,10,10,10,18,11,33,0.00,1,,272
2013-4-3,46,35,23,16,12,8,55,39,22,30.34,30.22,30.14,10,10,10,24,11,31,0.00,2,,292
2013-4-4,53,37,21,21,17,12,58,43,28,30.41,30.27,30.08,10,10,10,17,6,21,0.00,0,,227
2013-4-5,62,49,35,63,27,17,64,42,19,30.06,29.91,29.77,10,10,6,21,8,28,0.00,1,,304
2013-4-6,53,42,31,22,15,10,56,38,20,30.32,30.24,30.07,10,10,10,15,6,21,0.00,0,,305
2013-4-7,64,50,36,40,32,20,70,54,37,30.28,30.13,29.98,10,10,10,21,10,28,0.00,2,,192
2013-4-8,76,58,39,48,42,37,89,58,27,30.08,30.01,29.95,10,10,1,16,6,23,T,1,Rain,215
2013-4-9,82,67,51,51,45,38,83,52,21,29.99,29.95,29.88,10,10,10,23,9,32,0.00,1,,249
2013-4-10,86,71,55,61,56,49,93,67,40,29.94,29.85,29.76,10,8,0,30,7,38,0.66,4,Rain,248
2013-4-11,63,56,49,59,51,42,90,79,67,29.99,29.91,29.79,10,10,7,23,10,30,T,7,Rain,72
2013-4-12,49,46,43,43,41,39,100,86,71,29.96,29.81,29.72,10,6,2,23,12,32,0.77,8,Rain,77
2013-4-13,58,48,38,43,38,32,100,70,40,29.98,29.86,29.78,10,7,0,20,5,25,0.00,5,Fog,283
2013-4-14,60,50,39,36,32,26,85,59,33,30.19,30.08,29.98,10,10,9,18,9,26,0.00,4,,290
2013-4-15,62,54,45,41,35,29,59,51,42,30.35,30.28,30.19,10,10,10,13,8,18,T,5,,131
2013-4-16,70,60,49,55,48,39,78,68,57,30.34,30.26,30.12,10,10,7,21,9,28,0.01,7,Rain,174
2013-4-17,71,61,51,57,43,29,86,55,24,30.28,30.19,30.11,10,10,6,13,5,17,0.02,4,Rain,342
2013-4-18,61,55,49,56,49,40,93,76,59,30.30,30.20,30.05,10,9,2,16,7,22,0.16,7,Rain,102
2013-4-19,77,64,50,63,59,46,93,77,60,30.04,29.81,29.57,10,8,2,25,12,35,1.07,8,Rain,200
2013-4-20,56,47,38,46,31,23,86,59,32,30.35,30.02,29.77,10,10,5,23,12,35,0.03,4,Rain,280
2013-4-21,55,43,31,61,24,20,69,49,28,30.61,30.53,30.37,10,10,6,15,5,22,0.00,0,,19
2013-4-22,56,44,31,61,31,26,82,60,38,30.63,30.56,30.47,10,10,6,21,10,28,0.00,1,,93
2013-4-23,53,47,41,41,37,32,82,71,60,30.45,30.30,30.14,10,10,8,15,8,18,T,8,Rain,62
2013-4-24,71,54,36,57,46,36,92,71,49,30.12,29.97,29.79,10,10,5,29,8,43,0.03,3,Rain,214
2013-4-25,62,52,42,46,32,28,70,49,27,30.28,30.16,29.91,10,10,10,23,8,33,0.00,2,,286
2013-4-26,64,51,38,36,31,24,79,52,25,30.44,30.38,30.29,10,10,10,17,5,22,0.00,0,,300
2013-4-27,69,52,34,36,33,30,82,53,24,30.45,30.37,30.27,10,10,10,10,2,15,0.00,0,,258
2013-4-28,70,54,38,42,37,31,82,56,29,30.30,30.24,30.17,10,10,9,17,7,23,T,1,Rain,199
2013-4-29,56,54,52,54,50,39,100,78,55,30.21,30.17,30.13,10,7,2,14,7,20,0.18,8,Rain,112
2013-4-30,68,57,46,54,46,22,100,62,24,30.33,30.25,30.18,10,8,2,17,8,23,T,5,Rain,96